• In Netherlands
  • List of Countries
  • For 7 days
  • Water Temperature
  • Satellite Maps
  • Weather Map
  • Weather Widgets
  • user-avatar
    Login

    Hourly Weather Shumen

    Today, 18 November, Saturday

    Time Temperature Precipitation Wind Pressure Humidity
    00:00 +9°C° 0.4 mm 2 mps 732 mmHg 95%
    01:00 +9°C° 0.4 mm 2 mps 732 mmHg 95%
    02:00 +9°C° 0.4 mm 2 mps 731 mmHg 95%
    03:00 +9°C° 1.1 mm 2 mps 731 mmHg 96%
    04:00 +9°C° 1.1 mm 2 mps 731 mmHg 96%
    05:00 +9°C° 1.1 mm 2 mps 730 mmHg 96%
    06:00 +9°C° 1.4 mm 2 mps 730 mmHg 96%
    07:00 +9°C° 1.4 mm 2 mps 730 mmHg 96%
    08:00 +9°C° 1.4 mm 2 mps 730 mmHg 96%
    09:00 +9°C° 1.1 mm 2 mps 730 mmHg 95%
    10:00 +9°C° 1.1 mm 2 mps 730 mmHg 94%
    11:00 +9°C° 1.1 mm 2 mps 730 mmHg 92%
    12:00 +10°C° 0.4 mm 2 mps 730 mmHg 90%
    13:00 +10°C° 0.4 mm 2 mps 729 mmHg 87%
    14:00 +10°C° 0.4 mm 2 mps 729 mmHg 84%
    15:00 +10°C° 0.1 mm 2 mps 729 mmHg 86%
    16:00 +9°C° 0.1 mm 2 mps 728 mmHg 87%
    17:00 +9°C° 0.1 mm 2 mps 728 mmHg 89%
    18:00 +8°C° 0 mm 2 mps 728 mmHg 89%
    19:00 +8°C° 0 mm 2 mps 728 mmHg 90%
    20:00 +8°C° 0 mm 2 mps 728 mmHg 91%
    21:00 +8°C° 0.1 mm 2 mps 728 mmHg 91%
    22:00 +8°C° 0.1 mm 2 mps 728 mmHg 91%
    23:00 +8°C° 0.1 mm 2 mps 728 mmHg 91%

    Tomorrow, 19 November, Sunday

    Time Temperature Precipitation Wind Pressure Humidity
    00:00 +8°C° 0.2 mm 2 mps 728 mmHg 91%
    01:00 +7°C° 0.2 mm 3 mps 728 mmHg 91%
    02:00 +7°C° 0.2 mm 3 mps 727 mmHg 91%
    03:00 +7°C° 0.3 mm 3 mps 727 mmHg 91%
    04:00 +7°C° 0.3 mm 3 mps 727 mmHg 91%
    05:00 +7°C° 0.3 mm 3 mps 727 mmHg 90%
    06:00 +7°C° 0.1 mm 3 mps 727 mmHg 89%
    07:00 +7°C° 0.1 mm 3 mps 727 mmHg 88%
    08:00 +6°C° 0.1 mm 4 mps 727 mmHg 87%
    09:00 +6°C° 0 mm 4 mps 727 mmHg 81%
    10:00 +7°C° 0 mm 4 mps 727 mmHg 76%
    11:00 +8°C° 0 mm 5 mps 727 mmHg 70%
    12:00 +8°C° 0 mm 5 mps 727 mmHg 67%
    13:00 +8°C° 0 mm 5 mps 726 mmHg 65%
    14:00 +9°C° 0 mm 5 mps 726 mmHg 62%
    15:00 +8°C° 0 mm 5 mps 726 mmHg 63%
    16:00 +7°C° 0 mm 4 mps 726 mmHg 64%
    17:00 +7°C° 0 mm 4 mps 726 mmHg 65%
    18:00 +6°C° 0 mm 4 mps 726 mmHg 63%
    19:00 +6°C° 0 mm 4 mps 726 mmHg 61%
    20:00 +5°C° 0 mm 3 mps 726 mmHg 59%
    21:00 +5°C° 0 mm 3 mps 727 mmHg 61%
    22:00 +5°C° 0 mm 3 mps 727 mmHg 62%
    23:00 +4°C° 0 mm 3 mps 727 mmHg 64%

    Day after tomorrow, 20 November, Monday

    Time Temperature Precipitation Wind Pressure Humidity
    00:00 +4°C° 0 mm 3 mps 727 mmHg 65%
    01:00 +4°C° 0 mm 3 mps 727 mmHg 67%
    02:00 +3°C° 0 mm 3 mps 727 mmHg 69%
    03:00 +3°C° 0 mm 3 mps 727 mmHg 70%
    04:00 +3°C° 0 mm 3 mps 727 mmHg 70%
    05:00 +4°C° 0 mm 2 mps 727 mmHg 71%
    06:00 +3°C° 0 mm 3 mps 728 mmHg 72%
    07:00 +3°C° 0 mm 3 mps 728 mmHg 72%
    08:00 +3°C° 0 mm 3 mps 728 mmHg 73%
    09:00 +3°C° 0.2 mm 3 mps 729 mmHg 73%
    10:00 +3°C° 0.2 mm 3 mps 729 mmHg 72%
    11:00 +4°C° 0.2 mm 4 mps 729 mmHg 72%
    12:00 +4°C° 0.2 mm 4 mps 729 mmHg 70%
    13:00 +4°C° 0.2 mm 4 mps 729 mmHg 69%
    14:00 +5°C° 0.2 mm 4 mps 729 mmHg 68%
    15:00 +4°C° 0 mm 3 mps 729 mmHg 69%
    16:00 +4°C° 0 mm 3 mps 729 mmHg 70%
    17:00 +5°C° 0 mm 2 mps 729 mmHg 70%
    18:00 +3°C° 0 mm 3 mps 729 mmHg 71%
    19:00 +3°C° 0 mm 3 mps 730 mmHg 72%
    20:00 +2°C° 0 mm 3 mps 730 mmHg 72%
    21:00 +1°C° 0 mm 4 mps 730 mmHg 73%
    22:00 +1°C° 0 mm 4 mps 730 mmHg 74%
    23:00 0°C° 0 mm 5 mps 730 mmHg 74%

    21 November, Tuesday

    Time Temperature Precipitation Wind Pressure Humidity
    00:00 0°C° 0 mm 5 mps 730 mmHg 76%
    01:00 0°C° 0 mm 5 mps 731 mmHg 77%
    02:00 -1°C° 0 mm 5 mps 731 mmHg 78%
    03:00 -1°C° 0 mm 4 mps 731 mmHg 79%
    04:00 -1°C° 0 mm 4 mps 731 mmHg 80%
    05:00 -1°C° 0 mm 4 mps 731 mmHg 81%
    06:00 0°C° 0 mm 3 mps 731 mmHg 81%
    07:00 0°C° 0 mm 3 mps 732 mmHg 81%
    08:00 0°C° 0 mm 3 mps 732 mmHg 82%
    09:00 +1°C° 0 mm 3 mps 732 mmHg 74%
    10:00 +3°C° 0 mm 3 mps 732 mmHg 66%
    11:00 +4°C° 0 mm 4 mps 732 mmHg 58%
    12:00 +5°C° 0 mm 4 mps 732 mmHg 54%
    13:00 +6°C° 0 mm 4 mps 731 mmHg 51%
    14:00 +6°C° 0 mm 4 mps 731 mmHg 47%
    15:00 +7°C° 0 mm 3 mps 731 mmHg 50%
    16:00 +5°C° 0 mm 3 mps 731 mmHg 54%
    17:00 +5°C° 0 mm 2 mps 730 mmHg 57%
    18:00 +5°C° 0 mm 2 mps 730 mmHg 58%
    19:00 +5°C° 0 mm 2 mps 730 mmHg 60%
    20:00 +3°C° 0 mm 3 mps 730 mmHg 61%
    21:00 +3°C° 0 mm 3 mps 730 mmHg 61%
    22:00 +3°C° 0 mm 3 mps 730 mmHg 62%
    23:00 +3°C° 0 mm 3 mps 730 mmHg 62%

    22 November, Wednesday

    Time Temperature Precipitation Wind Pressure Humidity
    00:00 +3°C° 0 mm 3 mps 730 mmHg 61%
    01:00 +4°C° 0 mm 4 mps 730 mmHg 61%
    02:00 +4°C° 0 mm 4 mps 730 mmHg 61%
    03:00 +4°C° 0 mm 4 mps 730 mmHg 62%
    04:00 +4°C° 0 mm 4 mps 730 mmHg 62%
    05:00 +4°C° 0 mm 4 mps 730 mmHg 63%
    06:00 +4°C° 0 mm 4 mps 730 mmHg 64%
    07:00 +4°C° 0 mm 4 mps 730 mmHg 65%
    08:00 +4°C° 0 mm 4 mps 731 mmHg 66%
    09:00 +6°C° 0 mm 4 mps 731 mmHg 62%
    10:00 +7°C° 0 mm 5 mps 731 mmHg 57%
    11:00 +9°C° 0 mm 5 mps 732 mmHg 53%
    12:00 +10°C° 0 mm 5 mps 732 mmHg 52%
    13:00 +10°C° 0 mm 5 mps 732 mmHg 52%
    14:00 +12°C° 0 mm 5 mps 731 mmHg 51%
    15:00 +11°C° 0 mm 4 mps 731 mmHg 56%
    16:00 +10°C° 0 mm 3 mps 731 mmHg 60%
    17:00 +9°C° 0 mm 2 mps 732 mmHg 65%
    18:00 +8°C° 0 mm 2 mps 732 mmHg 66%
    19:00 +8°C° 0 mm 2 mps 732 mmHg 68%
    20:00 +8°C° 0 mm 2 mps 732 mmHg 70%
    21:00 +7°C° 0 mm 2 mps 732 mmHg 70%
    22:00 +7°C° 0 mm 2 mps 733 mmHg 70%
    23:00 +7°C° 0 mm 2 mps 733 mmHg 70%

    23 November, Thursday

    Time Temperature Precipitation Wind Pressure Humidity
    00:00 +7°C° 0 mm 2 mps 733 mmHg 70%
    01:00 +7°C° 0 mm 2 mps 733 mmHg 71%
    02:00 +6°C° 0 mm 2 mps 733 mmHg 71%
    03:00 +6°C° 0 mm 2 mps 733 mmHg 71%
    04:00 +6°C° 0 mm 2 mps 733 mmHg 72%
    05:00 +6°C° 0 mm 2 mps 733 mmHg 72%
    06:00 +6°C° 0 mm 2 mps 734 mmHg 73%
    07:00 +6°C° 0 mm 2 mps 734 mmHg 73%
    08:00 +7°C° 0 mm 1 mps 734 mmHg 73%
    09:00 +9°C° 0 mm 1 mps 735 mmHg 66%
    10:00 +11°C° 0 mm 1 mps 735 mmHg 59%
    11:00 +13°C° 0 mm 1 mps 736 mmHg 52%
    12:00 +14°C° 0 mm 1 mps 736 mmHg 50%
    13:00 +14°C° 0 mm 1 mps 736 mmHg 48%
    14:00 +14°C° 0 mm 0 mps 736 mmHg 46%
    15:00 +13°C° 0 mm 0 mps 735 mmHg 50%
    16:00 +13°C° 0 mm 1 mps 735 mmHg 54%
    17:00 +11°C° 0 mm 1 mps 735 mmHg 59%
    18:00 +11°C° 0 mm 1 mps 736 mmHg 61%
    19:00 +10°C° 0 mm 1 mps 736 mmHg 64%
    20:00 +10°C° 0 mm 1 mps 736 mmHg 66%
    21:00 +10°C° 0 mm 1 mps 736 mmHg 68%
    22:00 +9°C° 0 mm 1 mps 736 mmHg 69%
    23:00 +9°C° 0 mm 1 mps 736 mmHg 70%
    Show more